Tracking 18840 objects as of 19-November-2017
HD Live streaming from Space Station
objects crossing your sky now

HELIOS-2A

Track HELIOS-2A now!
10-day predictions
HELIOS-2A is classified as:


NORAD ID: 28492
Int'l Code: 2004-049A
Perigee: 684.5 km
Apogee: 691.5 km
Inclination: 98.1 °
Period: 98.4 minutes
Semi major axis: 7058 km
RCS: Unknown
Launch date: December 18, 2004
Source: France (FR)
Launch site: FRENCH GUIANA (FRGUI)

Optical reconnaissance; independent military intelligence capability for the EU.
aabbcc
Your satellite tracking list
Your tracking list is empty




NASA's NSSDC Master Catalog

Two Line Element Set (TLE):
1 28492U 04049A   17273.11861050 0.00000700  00000-0  13425-3 0    02
2 28492  98.1263 208.8427 0005000 118.5436 241.4563 14.63827172    06
Source of the keplerian elements: McCants